Date,TemperatureHighF,TemperatureAvgF,TemperatureLowF,DewpointHighF,DewpointAvgF,DewpointLowF,HumidityHigh,HumidityAvg,HumidityLow,PressureMaxIn,PressureMinIn,WindSpeedMaxMPH,WindSpeedAvgMPH,GustSpeedMaxMPH,PrecipitationSumIn
2013-1-1,39.0,28.9,14.7,8.0,1.8,-8.9,34,31,29,29.93,29.69,15,4,15,0.00
2013-1-2,27.9,15.8,5.2,1.1,-8.3,-17.1,36,33,31,30.11,29.90,12,3,12,0.00
2013-1-3,30.9,10.7,1.2,2.9,-12.4,-20.7,35,34,30,30.14,29.99,10,2,10,0.00
2013-1-4,37.9,24.4,7.7,8.1,-1.8,-14.9,44,32,29,29.99,29.78,9,2,9,0.00
2013-1-5,47.5,30.7,18.3,13.7,3.0,-6.0,35,30,27,30.25,29.81,13,2,13,0.00
2013-1-6,47.3,29.4,18.7,14.6,3.4,-5.7,42,33,27,30.22,29.93,8,1,8,0.00
2013-1-7,45.3,27.5,15.3,14.1,3.7,-8.1,52,36,27,30.40,29.96,12,1,12,0.00
2013-1-8,48.0,27.6,14.9,15.6,4.2,-6.8,51,37,27,30.37,30.25,8,1,8,0.04
2013-1-9,43.5,32.2,19.8,12.5,7.7,2.3,50,36,28,30.40,29.99,12,1,12,0.04
2013-1-10,51.1,39.4,27.3,16.4,9.3,0.6,33,29,26,30.55,29.99,20,5,20,0.00
2013-1-11,39.6,31.8,23.2,21.2,8.7,-0.5,52,38,28,30.52,30.22,4,0,4,0.16
2013-1-12,43.5,40.2,37.0,36.1,27.0,20.6,78,59,49,30.22,30.14,5,0,4,0.04
2013-1-13,51.4,46.5,41.0,47.8,39.1,29.6,88,76,51,30.17,29.99,6,0,6,0.00
2013-1-14,66.7,50.3,38.3,49.5,27.9,8.8,90,47,25,30.25,29.84,12,2,12,0.00
2013-1-15,43.7,34.9,27.1,12.7,6.1,0.4,33,29,28,30.31,30.22,6,1,6,0.00
2013-1-16,33.6,31.6,28.6,18.3,11.5,1.0,53,44,30,30.25,29.81,2,0,2,0.00
2013-1-17,44.8,31.9,26.2,24.2,9.9,-0.3,71,41,28,30.11,29.81,13,2,13,0.08
2013-1-18,27.5,18.1,11.3,0.8,-6.3,-11.7,36,33,31,30.43,30.05,13,3,13,0.00
2013-1-19,51.6,33.3,18.7,17.5,5.0,-5.7,35,30,26,30.37,29.87,13,2,13,0.08
2013-1-20,54.7,38.2,26.4,22.2,8.7,-0.2,35,29,26,29.90,29.51,20,5,20,0.04
2013-1-21,27.9,23.3,15.8,3.1,-1.7,-8.1,44,33,31,30.08,29.78,17,3,17,0.00
2013-1-22,26.6,18.3,9.5,2.8,-3.8,-13.3,51,37,32,30.05,29.75,12,3,12,0.00
2013-1-23,17.8,7.6,0.5,-7.3,-15.0,-21.5,36,34,33,30.14,30.05,14,3,14,0.00
2013-1-24,18.5,7.2,-4.0,-6.5,-15.4,-25.4,34,34,33,30.19,30.05,14,5,14,0.00
2013-1-25,23.7,13.8,5.2,-1.9,-9.9,-17.3,34,33,32,30.28,30.08,15,4,15,0.00
2013-1-26,26.4,15.2,8.6,-0.9,-8.6,-14.1,36,33,31,30.22,29.99,13,4,13,0.00
2013-1-27,31.3,18.3,12.0,3.2,-6.2,-11.0,35,33,30,30.46,30.19,15,5,15,0.00
2013-1-28,31.1,22.6,15.3,5.3,-0.9,-8.1,44,35,30,30.43,30.02,6,1,6,0.00
2013-1-29,36.3,29.7,23.7,16.1,6.9,0.4,50,38,29,30.19,30.02,4,0,4,0.00
2013-1-30,59.2,44.2,32.7,58.0,28.6,16.1,97,55,38,30.17,29.46,9,1,9,0.28
2013-1-31,61.3,46.5,28.8,58.3,21.9,1.2,92,39,27,29.55,28.92,22,8,22,0.31